| time (UTC) | temp F | wind direction | speed knots | gust knots | rain 1hr in | rain 24hr in | rain mn in | humidity % | barometer mb |
| 20260901173039 | 93 | 82 | 1.7 | 9.6 | 0.00 | 0.00 | 0.00 | 50 | 1008.4 |
| 20260901171534 | 92 | 63 | 0.0 | 7.0 | 0.00 | 0.00 | 0.00 | 51 | 1008.5 |
| 20260901170034 | 93 | 94 | 0.9 | 6.1 | 0.00 | 0.00 | 0.00 | 50 | 1008.7 |
| 20260901164534 | 93 | 96 | 3.5 | 8.7 | 0.00 | 0.00 | 0.00 | 50 | 1008.7 |
| 20260901163030 | 93 | 68 | 2.6 | 5.2 | 0.00 | 0.00 | 0.00 | 51 | 1008.8 |
| 20260901161528 | 92 | 200 | 4.3 | 7.0 | 0.00 | 0.00 | 0.00 | 52 | 1009.0 |
| 20260901160034 | 91 | 160 | 0.9 | 6.1 | 0.00 | 0.00 | 0.00 | 54 | 1009.1 |
| 20260901154527 | 90 | 152 | 2.6 | 7.0 | 0.00 | 0.00 | 0.00 | 55 | 1009.1 |
| 20260901153036 | 91 | 122 | 2.6 | 6.1 | 0.00 | 0.00 | 0.00 | 56 | 1009.2 |
| 20260901151522 | 89 | 136 | 1.7 | 5.2 | 0.00 | 0.00 | 0.00 | 57 | 1009.1 |
| 20260901150020 | 88 | 142 | 0.0 | 4.3 | 0.00 | 0.00 | 0.00 | 59 | 1009.2 |
| 20260901144517 | 88 | 137 | 0.9 | 2.6 | 0.00 | 0.00 | 0.00 | 61 | 1009.3 |
| 20260901143012 | 87 | 115 | 0.0 | 5.2 | 0.00 | 0.00 | 0.00 | 64 | 1009.2 |
| 20260901141507 | 86 | 259 | 0.9 | 2.6 | 0.00 | 0.00 | 0.00 | 68 | 1009.2 |
| 20260901140003 | 84 | 159 | 0.0 | 2.6 | 0.00 | 0.00 | 0.00 | 73 | 1009.2 |
| 20260901134501 | 82 | 160 | 0.0 | 1.7 | 0.00 | 0.00 | 0.00 | 77 | 1009.2 |
| 20260901133100 | 80 | 107 | 1.7 | 3.5 | 0.00 | 0.00 | 0.00 | 79 | 1009.2 |
| 20260901131559 | 79 | 136 | 0.9 | 2.6 | 0.00 | 0.00 | 0.00 | 81 | 1009.2 |
| 20260901130056 | 78 | 119 | 0.0 | 2.6 | 0.00 | 0.00 | 0.00 | 83 | 1009.0 |
| 20260901124553 | 0 | 0.0 | 0.0 | 0.00 | 0.00 | 0.00 | 1008.8 | ||
| 20260901123052 | 0 | 0.0 | 0.0 | 0.00 | 0.00 | 0.00 | 1008.6 | ||
| 20260901121544 | 0 | 0.0 | 0.0 | 0.00 | 0.00 | 0.00 | 1008.5 | ||
| 20260901120039 | 0 | 0.0 | 0.0 | 0.00 | 0.00 | 0.00 | 1008.5 | ||
| 20260901114535 | 0 | 0.0 | 0.0 | 0.00 | 0.00 | 0.00 | 1008.5 | ||
| 20260901113030 | 0 | 0.0 | 0.0 | 0.00 | 0.00 | 0.00 | 1008.4 | ||
| 20260901111526 | 0 | 0.0 | 0.0 | 0.00 | 0.00 | 0.00 | 1008.3 | ||
| 20260901110024 | 0 | 0.0 | 0.0 | 0.00 | 0.00 | 0.00 | 1008.3 | ||
| 20260901104517 | 0 | 0.0 | 0.0 | 0.00 | 0.00 | 0.00 | 1008.2 | ||
| 20260901103012 | 0 | 0.0 | 0.0 | 0.00 | 0.00 | 0.00 | 1008.1 | ||
| 20260901101508 | 0 | 0.0 | 0.0 | 0.00 | 0.00 | 0.00 | 1008.0 | ||
| 20260901100005 | 0 | 0.0 | 0.0 | 0.00 | 0.00 | 0.00 | 1007.9 | ||
| 20260901094604 | 78 | 145 | 0.0 | 1.7 | 0.00 | 0.00 | 0.00 | 78 | 1008.0 |
| 20260901093056 | 80 | 132 | 0.9 | 1.7 | 0.00 | 0.00 | 0.00 | 79 | 1008.1 |
| 20260901091604 | 80 | 146 | 0.0 | 0.0 | 0.00 | 0.00 | 0.00 | 78 | 1008.0 |
| 20260901090100 | 81 | 146 | 0.0 | 2.6 | 0.00 | 0.00 | 0.00 | 77 | 1007.9 |
| 20260901084553 | 81 | 156 | 0.9 | 2.6 | 0.00 | 0.00 | 0.00 | 76 | 1007.8 |
| 20260901083051 | 82 | 160 | 0.9 | 3.5 | 0.00 | 0.00 | 0.00 | 75 | 1007.8 |
| 20260901081546 | 82 | 193 | 1.7 | 3.5 | 0.00 | 0.00 | 0.00 | 75 | 1007.8 |
| 20260901080057 | 82 | 148 | 1.7 | 6.1 | 0.00 | 0.00 | 0.00 | 74 | 1007.8 |
| 20260901074547 | 82 | 165 | 1.7 | 5.2 | 0.00 | 0.00 | 0.00 | 73 | 1007.7 |
| 20260901073042 | 82 | 135 | 2.6 | 7.0 | 0.00 | 0.00 | 0.00 | 73 | 1007.7 |
| 20260901071540 | 82 | 146 | 1.7 | 5.2 | 0.00 | 0.00 | 0.00 | 71 | 1007.7 |
| 20260901070046 | 82 | 152 | 2.6 | 7.0 | 0.00 | 0.00 | 0.00 | 69 | 1007.7 |
| 20260901064539 | 82 | 153 | 1.7 | 5.2 | 0.00 | 0.00 | 0.00 | 67 | 1007.8 |
| 20260901063048 | 82 | 149 | 2.6 | 5.2 | 0.00 | 0.00 | 0.00 | 66 | 1007.7 |
| 20260901061533 | 82 | 148 | 1.7 | 4.3 | 0.00 | 0.00 | 0.00 | 65 | 1007.6 |
| 20260901060032 | 82 | 131 | 1.7 | 3.5 | 0.00 | 0.00 | 0.00 | 63 | 1007.5 |
| 20260901054531 | 83 | 151 | 2.6 | 5.2 | 0.00 | 0.00 | 0.00 | 61 | 1007.5 |
| 20260901053028 | 83 | 124 | 2.6 | 5.2 | 0.00 | 0.00 | 0.00 | 58 | 1007.4 |
| 20260901051526 | 83 | 141 | 1.7 | 5.2 | 0.00 | 0.00 | 0.00 | 56 | 1007.2 |
| 20260901050023 | 83 | 146 | 1.7 | 3.5 | 0.00 | 0.00 | 0.00 | 55 | 1007.0 |
| 20260901044531 | 83 | 150 | 2.6 | 4.3 | 0.00 | 0.00 | 0.00 | 54 | 1006.9 |
| 20260901043021 | 83 | 136 | 2.6 | 6.1 | 0.00 | 0.00 | 0.00 | 52 | 1006.9 |
| 20260901041527 | 84 | 127 | 0.9 | 2.6 | 0.00 | 0.00 | 0.00 | 50 | 1006.8 |
| 20260901040024 | 84 | 121 | 0.9 | 2.6 | 0.00 | 0.00 | 0.00 | 49 | 1006.6 |
| 20260901034534 | 84 | 120 | 0.0 | 0.0 | 0.00 | 0.00 | 0.00 | 49 | 1006.5 |
| 20260901033025 | 85 | 120 | 0.0 | 0.9 | 0.00 | 0.00 | 0.00 | 48 | 1006.5 |
| 20260901031530 | 85 | 120 | 0.0 | 0.0 | 0.00 | 0.00 | 0.00 | 48 | 1006.4 |
| 20260901030022 | 86 | 120 | 0.0 | 0.0 | 0.00 | 0.00 | 0.00 | 47 | 1006.2 |
| 20260901024518 | 87 | 121 | 0.0 | 1.7 | 0.00 | 0.00 | 0.00 | 47 | 1006.1 |
| 20260901023017 | 87 | 120 | 0.0 | 0.0 | 0.00 | 0.00 | 0.00 | 46 | 1006.0 |
| 20260901021518 | 88 | 121 | 0.0 | 0.9 | 0.00 | 0.00 | 0.00 | 45 | 1005.8 |
| 20260901020017 | 89 | 121 | 0.0 | 0.0 | 0.00 | 0.00 | 0.00 | 44 | 1005.7 |
| 20260901014515 | 90 | 120 | 0.0 | 1.7 | 0.00 | 0.00 | 0.00 | 42 | 1005.5 |
| 20260901013015 | 92 | 120 | 0.0 | 1.7 | 0.00 | 0.00 | 0.00 | 40 | 1005.4 |
| 20260901011517 | 93 | 121 | 0.9 | 3.5 | 0.00 | 0.00 | 0.00 | 38 | 1005.3 |
| 20260901010026 | 94 | 123 | 0.9 | 3.5 | 0.00 | 0.00 | 0.00 | 38 | 1005.2 |
| 20260901004518 | 95 | 116 | 2.6 | 7.0 | 0.00 | 0.00 | 0.00 | 37 | 1005.3 |
| 20260901003016 | 96 | 114 | 4.3 | 11.3 | 0.00 | 0.00 | 0.00 | 36 | 1005.2 |
| 20260901001515 | 97 | 111 | 4.3 | 7.8 | 0.00 | 0.00 | 0.00 | 35 | 1005.3 |
| 20260901000011 | 97 | 143 | 4.3 | 9.6 | 0.00 | 0.00 | 0.00 | 34 | 1005.2 |
| 20260831234511 | 97 | 137 | 4.3 | 8.7 | 0.00 | 0.00 | 0.00 | 35 | 1005.2 |
| 20260831233010 | 97 | 129 | 4.3 | 9.6 | 0.00 | 0.00 | 0.00 | 35 | 1005.2 |
| 20260831231511 | 98 | 132 | 6.1 | 12.2 | 0.00 | 0.00 | 0.00 | 34 | 1005.2 |
| 20260831230007 | 99 | 134 | 0.9 | 10.4 | 0.00 | 0.00 | 0.00 | 32 | 1005.2 |
| 20260831224507 | 99 | 84 | 6.1 | 12.2 | 0.00 | 0.00 | 0.00 | 30 | 1005.3 |
| 20260831223006 | 99 | 82 | 4.3 | 10.4 | 0.00 | 0.00 | 0.00 | 30 | 1005.4 |
| 20260831221505 | 100 | 126 | 3.5 | 7.8 | 0.00 | 0.00 | 0.00 | 31 | 1005.5 |
| 20260831220004 | 99 | 66 | 4.3 | 10.4 | 0.00 | 0.00 | 0.00 | 31 | 1005.5 |
| 20260831214501 | 99 | 153 | 3.5 | 9.6 | 0.00 | 0.00 | 0.00 | 29 | 1005.7 |
| 20260831213104 | 99 | 138 | 3.5 | 9.6 | 0.00 | 0.00 | 0.00 | 30 | 1005.8 |
| 20260831211601 | 99 | 82 | 6.1 | 10.4 | 0.00 | 0.00 | 0.00 | 32 | 1005.9 |
| 20260831210057 | 99 | 101 | 3.5 | 13.0 | 0.00 | 0.00 | 0.00 | 32 | 1006.2 |
| 20260831204558 | 99 | 146 | 2.6 | 9.6 | 0.00 | 0.00 | 0.00 | 34 | 1006.5 |
| 20260831203059 | 99 | 67 | 4.3 | 8.7 | 0.00 | 0.00 | 0.00 | 35 | 1006.7 |
| 20260831201558 | 97 | 103 | 2.6 | 10.4 | 0.00 | 0.00 | 0.00 | 36 | 1007.0 |
| 20260831200049 | 98 | 116 | 7.0 | 12.2 | 0.00 | 0.00 | 0.00 | 36 | 1007.2 |
| 20260831194547 | 98 | 129 | 2.6 | 13.0 | 0.00 | 0.00 | 0.00 | 37 | 1007.3 |
| 20260831193112 | 97 | 132 | 4.3 | 12.2 | 0.00 | 0.00 | 0.00 | 39 | 1007.4 |
| 20260831191542 | 97 | 120 | 6.1 | 13.0 | 0.00 | 0.00 | 0.00 | 39 | 1007.6 |
| 20260831190046 | 96 | 143 | 5.2 | 10.4 | 0.00 | 0.00 | 0.00 | 40 | 1007.8 |
| 20260831184540 | 97 | 98 | 1.7 | 10.4 | 0.00 | 0.00 | 0.00 | 39 | 1007.9 |
| 20260831183041 | 96 | 133 | 7.0 | 13.9 | 0.00 | 0.00 | 0.00 | 41 | 1008.1 |
| 20260831181549 | 95 | 102 | 6.1 | 13.0 | 0.00 | 0.00 | 0.00 | 41 | 1008.3 |
| 20260831180038 | 95 | 146 | 7.0 | 13.0 | 0.00 | 0.00 | 0.00 | 42 | 1008.5 |
| 20260831174535 | 94 | 147 | 4.3 | 13.0 | 0.00 | 0.00 | 0.00 | 44 | 1008.8 |